Overview Statistics Trail Chart Weather Telemetry Raw packets
 

This is the latest recevied weather packets stored in our database for station/object KF0RZX-13. If no packets are shown the sender has not sent any weather packets the latest 10 day(s).

<< 1 2 3 4 5 >>
Time Temp. Humidity Pressure Rain* Wind** Luminosity Snow
1788336876 16.11° C 63% 1018.3 hPa 0 mm - - -
1788335071 16.11° C 63% 1018.3 hPa 0 mm - - -
1788333267 16.11° C 63% 1018.3 hPa 0 mm - - -
1788331461 16.11° C 63% 1018.3 hPa 0 mm - - -
1788329656 17.22° C 59% 1018.3 hPa 0 mm - - -
1788327851 17.22° C 59% 1018.3 hPa 0 mm - - -
1788326046 21.11° C 43% 1018.3 hPa 0 mm - - -
1788324241 20° C 49% 1018.3 hPa 0 mm - - -
1788322436 21.11° C 49% 1018.3 hPa 0 mm - - -
1788320631 22.22° C 46% 1017.9 hPa 0 mm - - -
1788318827 21.11° C 56% 1017.6 hPa 0 mm - - -
1788317023 22.22° C 53% 1017.3 hPa 0 mm - - -
1788315216 22.78° C 47% 1016.9 hPa 0 mm - - -
1788313412 23.89° C 41% 1016.9 hPa 0 mm - - -
1788311606 27.22° C 34% 1016.9 hPa 0 mm - - -
1788309801 27.78° C 32% 1016.9 hPa 0 mm - - -
1788307996 28.89° C 33% 1016.9 hPa 0 mm - - -
1788306191 28.89° C 33% 1016.9 hPa 0 mm - - -
1788304386 30° C 31% 1017.3 hPa 0 mm - - -
1788302581 30° C 31% 1017.3 hPa 0 mm - - -
1788300776 30° C 31% 1017.6 hPa 0 mm - - -
1788298971 28.89° C 33% 1017.9 hPa 0 mm - - -
1788297168 28.89° C 33% 1017.9 hPa 0 mm - - -
1788295362 30° C 27% 1017.9 hPa 0 mm - - -
1788293557 28.89° C 33% 1018.6 hPa 0 mm - - -

* Rain latest hour (hover to see other rain measurements)
** Current wind speed in m/s (hover to see current wind gust speed)